Stevens Point, WI

5:42 PM CDT on May 25, 2017 (GMT -0500)
Stevens Point Municipal

Weather History for KSTE - May, 2012

Change the Weather History Date:

Wednesday, May 16, 2012

  Actual Average Record
Temperature  
Mean Temperature 50 °F -  
Max Temperature 64 °F 69 °F 86 °F (1968)
Min Temperature 35 °F 45 °F 27 °F (2014)
Degree Days  
Heating Degree Days 16    
Moisture  
Dew Point 33 °F    
Average Humidity 57    
Maximum Humidity 95    
Minimum Humidity 26    
Precipitation  
Precipitation 0.00 in - - ()
Sea Level Pressure  
Sea Level Pressure 30.09 in    
Wind  
Wind Speed 3 mph (NW)    
Max Wind Speed 12 mph    
Max Gust Speed 16 mph    
Visibility 10 miles    
Events      
Averages and records for this station are not official NWS values.
T = Trace of Precipitation, MM = Missing Value Source: NWS Daily Summary

Daily Weather History Graph

Daily Weather History Graph

Search for Another Location

Airport or City:

Trip Planner

Search our weather history database for the weather conditions in past years. The results will help you decide how hot, cold, wet, or windy it might be!

Date:

Astronomy

May. 16, 2012 Rise Set
Actual Time 5:28 AM CDT 8:20 PM CDT
Civil Twilight 4:54 AM CDT 8:54 PM CDT
Nautical Twilight 4:11 AM CDT 9:38 PM CDT
Astronomical Twilight 3:21 AM CDT 10:29 PM CDT
Moon 3:07 AM CDT (5/16) 4:28 PM CDT (5/16)
Length of Visible Light 16h 00m
Length of Day
14h 52m
Waning Crescent, 16% of the Moon is Illuminated
May 16
Waning Crescent
May 20
New
May 28
First Quarter
Jun 4
Full
Jun 11
Last Quarter

Hourly Weather History & Observations

Time (CDT) Temp. Windchill Dew Point Humidity Pressure Visibility Wind Dir Wind Speed Gust Speed Precip Events Conditions
12:15 AM 47.7 °F - 36.5 °F 65% 30.04 in 10.0 mi NE 4.6 mph - N/A   Clear
12:55 AM 45.1 °F - 35.1 °F 68% 30.05 in 10.0 mi Calm Calm - N/A   Clear
1:15 AM 45.3 °F - 35.6 °F 69% 30.06 in 10.0 mi Calm Calm - N/A   Clear
1:35 AM 43.2 °F - 37.0 °F 79% 30.06 in 10.0 mi Calm Calm - N/A   Clear
1:55 AM 42.8 °F - 36.7 °F 79% 30.06 in 10.0 mi Calm Calm - N/A   Clear
2:15 AM 40.8 °F - 36.3 °F 84% 30.06 in 10.0 mi Calm Calm - N/A   Clear
2:35 AM 40.1 °F - 36.1 °F 86% 30.06 in 10.0 mi Calm Calm - N/A   Clear
2:55 AM 39.2 °F - 36.0 °F 88% 30.05 in 10.0 mi Calm Calm - N/A   Clear
3:15 AM 38.8 °F - 35.6 °F 88% 30.06 in 10.0 mi Calm Calm - N/A   Clear
3:35 AM 37.6 °F - 35.6 °F 93% 30.06 in 10.0 mi Calm Calm - N/A   Clear
3:55 AM 36.5 °F - 34.5 °F 93% 30.06 in 10.0 mi Calm Calm - N/A   Clear
4:15 AM 35.8 °F - 34.2 °F 94% 30.06 in 10.0 mi Calm Calm - N/A   Clear
4:35 AM 36.1 °F - 33.8 °F 91% 30.06 in 10.0 mi Calm Calm - N/A   Clear
4:55 AM 35.2 °F - 33.6 °F 94% 30.07 in 10.0 mi Calm Calm - N/A   Clear
5:15 AM 35.4 °F - 33.6 °F 93% 30.07 in 10.0 mi Calm Calm - N/A   Clear
5:35 AM 35.6 °F - 33.1 °F 91% 30.08 in 10.0 mi Calm Calm - N/A   Clear
5:55 AM 36.1 °F - 33.8 °F 91% 30.09 in 10.0 mi Calm Calm - N/A   Clear
6:15 AM 36.7 °F - 34.9 °F 93% 30.10 in 10.0 mi Calm Calm - N/A   Clear
6:35 AM 37.9 °F - 36.5 °F 95% 30.10 in 10.0 mi Calm Calm - N/A   Clear
6:55 AM 40.5 °F - 38.5 °F 93% 30.11 in 10.0 mi Calm Calm - N/A   Clear
7:15 AM 44.6 °F 43.1 °F 39.4 °F 82% 30.12 in 10.0 mi NNW 3.5 mph - N/A   Clear
7:35 AM 46.9 °F - 39.2 °F 74% 30.12 in 10.0 mi NW 4.6 mph - N/A   Clear
7:55 AM 49.1 °F - 38.5 °F 67% 30.13 in 10.0 mi NW 5.8 mph - N/A   Clear
8:15 AM 51.1 °F - 37.9 °F 61% 30.13 in 10.0 mi NW 6.9 mph - N/A   Clear
8:35 AM 52.7 °F - 37.4 °F 56% 30.13 in 10.0 mi NW 4.6 mph - N/A   Clear
8:55 AM 53.6 °F - 34.9 °F 49% 30.13 in 10.0 mi NNW 9.2 mph - N/A   Clear
9:15 AM 54.5 °F - 34.9 °F 48% 30.14 in 10.0 mi NW 4.6 mph - N/A   Clear
9:35 AM 55.8 °F - 33.4 °F 43% 30.14 in 10.0 mi West 8.1 mph 16.1 mph N/A   Clear
9:55 AM 56.3 °F - 34.3 °F 44% 30.13 in 10.0 mi NW 5.8 mph - N/A   Clear
10:55 AM 58.1 °F - 30.2 °F 35% 30.13 in 10.0 mi SW 6.9 mph - N/A   Scattered Clouds
11:15 AM 58.8 °F - 30.0 °F 34% 30.13 in 10.0 mi NW 8.1 mph - N/A   Clear
11:35 AM 59.0 °F - 28.9 °F 32% 30.13 in 10.0 mi NW 8.1 mph - N/A   Clear
11:55 AM 59.4 °F - 28.8 °F 31% 30.13 in 10.0 mi NNW 9.2 mph - N/A   Clear
12:15 PM 59.5 °F - 28.6 °F 31% 30.13 in 10.0 mi NNW 6.9 mph - N/A   Clear
12:35 PM 61.3 °F - 29.3 °F 30% 30.12 in 10.0 mi West 11.5 mph - N/A   Clear
12:55 PM 60.4 °F - 27.0 °F 28% 30.12 in 10.0 mi NNW 9.2 mph - N/A   Clear
1:15 PM 60.8 °F - 27.3 °F 28% 30.11 in 10.0 mi West 5.8 mph - N/A   Clear
1:35 PM 61.9 °F - 26.6 °F 26% 30.11 in 10.0 mi West 8.1 mph - N/A   Clear
1:55 PM 62.1 °F - 27.0 °F 26% 30.11 in 10.0 mi NW 6.9 mph - N/A   Clear
2:15 PM 62.4 °F - 29.3 °F 29% 30.10 in 10.0 mi Calm Calm - N/A   Clear
2:35 PM 63.1 °F - 30.0 °F 29% 30.10 in 10.0 mi NW 9.2 mph - N/A   Clear
2:55 PM 62.8 °F - 29.8 °F 29% 30.09 in 10.0 mi NNW 10.4 mph - N/A   Clear
3:15 PM 64.2 °F - 30.0 °F 28% 30.09 in 10.0 mi North 3.5 mph 16.1 mph N/A   Clear
3:35 PM 63.5 °F - 29.7 °F 28% 30.09 in 10.0 mi North 5.8 mph - N/A   Clear
3:55 PM 63.5 °F - 30.6 °F 29% 30.08 in 10.0 mi West 4.6 mph - N/A   Clear
4:15 PM 63.7 °F - 30.4 °F 29% 30.08 in 10.0 mi West 3.5 mph - N/A   Clear
4:35 PM 64.0 °F - 29.3 °F 27% 30.08 in 10.0 mi WNW 6.9 mph 16.1 mph N/A   Clear
4:55 PM 63.9 °F - 30.4 °F 28% 30.08 in 10.0 mi WSW 6.9 mph - N/A   Clear
5:35 PM 63.5 °F - 29.3 °F 28% 30.08 in 10.0 mi West 4.6 mph - N/A   Clear
5:55 PM 63.1 °F - 29.5 °F 28% 30.08 in 10.0 mi West 6.9 mph - N/A   Clear
6:35 PM 63.3 °F - 29.8 °F 28% 30.07 in 10.0 mi WNW 5.8 mph - N/A   Clear
6:55 PM 62.6 °F - 28.8 °F 28% 30.08 in 10.0 mi West 3.5 mph - N/A   Clear
7:15 PM 62.1 °F - 29.7 °F 29% 30.08 in 10.0 mi West 3.5 mph - N/A   Clear
7:35 PM 61.7 °F - 31.1 °F 32% 30.08 in 10.0 mi Calm Calm - N/A   Clear
7:55 PM 60.6 °F - 32.0 °F 34% 30.08 in 10.0 mi Calm Calm - N/A   Clear
8:15 PM 59.2 °F - 33.3 °F 38% 30.08 in 10.0 mi Calm Calm - N/A   Clear
8:35 PM 54.5 °F - 34.2 °F 46% 30.09 in 10.0 mi Calm Calm - N/A   Clear
9:15 PM 49.6 °F - 35.8 °F 59% 30.09 in 10.0 mi Calm Calm - N/A   Clear
9:35 PM 47.3 °F - 36.5 °F 66% 30.09 in 10.0 mi Calm Calm - N/A   Clear
9:55 PM 48.4 °F - 37.2 °F 65% 30.10 in 10.0 mi Calm Calm - N/A   Clear
10:15 PM 44.4 °F - 35.8 °F 72% 30.10 in 10.0 mi Calm Calm - N/A   Clear
10:35 PM 44.4 °F - 36.5 °F 74% 30.09 in 10.0 mi Calm Calm - N/A   Clear
10:55 PM 42.8 °F - 36.5 °F 78% 30.09 in 10.0 mi Calm Calm - N/A   Clear
11:15 PM 42.4 °F - 36.7 °F 80% 30.09 in 10.0 mi Calm Calm - N/A   Clear
11:35 PM 42.4 °F - 36.1 °F 78% 30.09 in 10.0 mi Calm Calm - N/A   Clear
11:55 PM 42.1 °F - 37.6 °F 84% 30.09 in 10.0 mi Calm Calm - N/A   Clear